星链-1350 (STARLINK-1350 )

导读

STARLINK-1350是美国SpaceX公司星链星座的第一代低轨通信卫星,于2020年4月22日发射入轨,属于星链早期组网卫星。星链星座旨在为全球提供覆盖偏远地区的高速宽带互联网服务,该卫星采用平板设计,搭载霍尔推进器,具备自主运行能力,设计寿命约5-7年,退役后会主动离轨坠入大气层销毁,减少太空垃圾。

基本信息
目录编号:
45535
目录名称:
STARLINK-1350
国际标识:
2020-025E
轨道中心:
EARTH
卫星名称:
星链-1350
卫星全名:
星链-1350 (STARLINK-1350 )
卫星状态:
在轨 (已飞行2334 天)
发射日期:
2020-04-22 UTC
国别 :
美国 (US)
星等 :
--
该卫星已列入 空间交会检测服务 Space Conjunction Data Service (SCDS) ,当前飞行风险评估等级: 无高风险
轨道信息
数据来源 国际轨道数据
星历时间: 2026-09-12T10:45:39+0800
15小时前
查看轨道信息
半长轴: 6815.706km
偏心率: 0.0002522
轨道倾角: 53.067°
近地点辐角 58.109°
升交点赤经 233.859°
平近点角 302.016°
近地点: 435.85km
远地点: 439.288km
周期: 93.331分钟
每日圈数: 15.428957
详细信息
固有亮度:
5
最大亮度:
2.5
卫星平台:
Starlink V1.0
覆盖范围:
全球
运营商:
太空探索技术公司
运营商所在国:
美国
制造商(研发单位):
太空探索技术公司
制造商所在国:
美国
使用方式:
暂无
卫星简介
星链(Starlink)计划是由太空探索技术公司(SpaceX)提出的一个巨型低轨卫星互联网星座项目,计划在2019年至2024年间在太空搭建由约1.2万颗卫星组成的“星链”网络,其中1584颗将部署在地球上空550千米处的近地轨道,并从2020年开始工作。该卫星仍在工作。
2D轨道图
3D轨道图
轨道高度分析图
轨道倾角分析图
轨道综合分析图
查看轨道综合分析图
与全量物体交会距离演化趋势
与全量物体交会风险概率演化趋势